Location: Summit Observatory
(39.5293°N, 75.7290°W)
Time: 10:18:02
(UTC-04:00)

Amateur Radio Satellites - All Passes

Search period start: 29 May 2015 09:48
Search period end: 30 May 2015 09:48
Location: Summit Observatory, 39.5293°N, 75.7290°W

Satellite Date Start Highest point End Downlink Frequencies (MHz)
Time Altitude Azimuth
AAUSAT CUBESAT 2 29 May 09:51:26 09:55:26 47° 99° (E) 09:59:26 437.432
DELFI C3 29 May 10:02:39 10:05:32 19° 93° (E) 10:08:31 145.870
QB50P1 29 May 10:03:35 10:04:45 11° 64° (ENE) 10:06:10 145.935-145.965
POLYITAN 1 29 May 10:06:26 10:08:09 12° 65° (ENE) 10:10:05 437.675
TIGRISAT 29 May 10:08:01 10:12:01 29° 70° (ENE) 10:16:03 435.000
UWE-3 29 May 10:15:31 10:19:15 28° 95° (E) 10:22:56 435.000/436.395/437.385
FUNcube-1 29 May 10:18:57 10:22:20 23° 93° (E) 10:25:44 145.935
GOMX 1 29 May 10:27:53 10:32:27 29° 292° (WNW) 10:36:44 467.674
UNISAT 6 29 May 10:29:01 10:33:32 50° 73° (ENE) 10:38:01 437.425
NANOSAT C BR1 29 May 10:31:38 10:34:55 23° 69° (ENE) 10:38:19 145.865
HUMSAT D 29 May 10:34:36 10:36:58 15° 91° (E) 10:39:30 437.325/437.525
CINEMA 3 29 May 10:35:06 10:39:47 66° 285° (WNW) 10:44:11 145.822/145.860
BRITE-PL 29 May 10:39:04 10:42:43 17° 297° (WNW) 10:46:04 437.365/2234.400
QB50P2 29 May 10:41:07 10:44:49 29° 71° (ENE) 10:48:36 145.880/145.840
SO-50 29 May 10:42:56 10:46:42 22° 44° (NE) 10:50:32 436.795
CANX-2 29 May 10:46:59 10:50:08 20° 291° (WNW) 10:53:11 2200.000
CUTE 1.7 + AOD 2 29 May 10:50:06 10:53:18 21° 291° (WNW) 10:56:22 437.475
DUCHIFAT 1 29 May 10:52:18 10:56:12 37° 72° (ENE) 11:00:11 145.980
POPSAT HIP 1 29 May 10:52:26 10:56:25 38° 72° (ENE) 11:00:25 437.405
50 SAT 29 May 10:55:40 10:57:34 14° 91° (E) 10:59:37 437.505
UKube-1 29 May 10:56:48 11:00:28 26° 95° (E) 11:04:11 .
ZACube-1 29 May 10:59:57 11:04:16 72° 101° (E) 11:08:27 437.345
BUGSAT 1 29 May 11:03:55 11:07:39 33° 71° (ENE) 11:11:29 437.445
Oscar 11 29 May 11:06:37 11:10:48 52° 286° (WNW) 11:14:58 145.826/435.025
Cosmos 2504 29 May 11:07:26 11:15:28 51° 283° (WNW) 11:22:57 435.465 / 435.565
DX 1 29 May 11:09:02 11:13:11 39° 98° (E) 11:17:18 434.975-435.025
SEEDS 29 May 11:09:10 11:11:46 16° 293° (WNW) 11:14:13 437.485
CUBEBUG 2 29 May 11:09:40 11:14:00 54° 286° (WNW) 11:18:09 437.445
ANTELSAT 29 May 11:12:21 11:16:58 56° 260° (W) 11:21:32 437.575/2403.000
DOVE 4 29 May 11:17:36 11:20:27 15° 297° (WNW) 11:22:59 437.250
COMPASS 1 29 May 11:18:18 11:20:49 15° 293° (WNW) 11:23:12 437.405
JUGNU 29 May 11:22:09 11:23:08 10° 179° (S) 11:24:08 437.505
CUBEBUG 1 29 May 11:25:07 11:27:39 15° 91° (E) 11:30:23 437.445
AAUSAT CUBESAT 2 29 May 11:28:28 11:30:42 14° 293° (WNW) 11:32:45 437.432
HO-68 29 May 11:30:36 11:36:10 24° 300° (WNW) 11:41:31 435.675
PCSat 29 May 11:30:39 11:34:22 18° 254° (WSW) 11:37:51 145.827
VELOX 1 29 May 11:33:11 11:37:19 36° 97° (E) 11:41:28 145.980
DANDE 29 May 11:34:08 11:37:07 13° 78° (ENE) 11:40:53 436.750
QB50P1 29 May 11:35:52 11:40:07 67° 259° (W) 11:44:25 145.935-145.965
DELFI C3 29 May 11:37:11 11:40:42 29° 289° (WNW) 11:44:11 145.870
POLYITAN 1 29 May 11:39:21 11:43:36 60° 260° (W) 11:47:54 437.675
TIGRISAT 29 May 11:44:44 11:48:45 27° 265° (W) 11:52:38 435.000
CUSAT 1 29 May 11:45:06 11:50:31 23° 83° (E) 11:56:39 437.405
ESTCUBE 1 29 May 11:46:16 11:50:16 30° 96° (E) 11:54:18 437.505/2401.250
RS-15 29 May 11:47:54 11:57:07 28° 330° (NNW) 12:06:23 29.354- 29.394
UWE-3 29 May 11:52:10 11:55:41 24° 291° (WNW) 11:59:02 435.000/436.395/437.385
FUNcube-1 29 May 11:54:59 11:58:41 27° 290° (WNW) 12:02:13 145.935
AISAT 29 May 12:05:31 12:10:03 88° 107° (ESE) 12:14:32 437.250
NANOSAT C BR1 29 May 12:06:50 12:10:37 30° 264° (W) 12:14:24 145.865
UNISAT 6 29 May 12:07:42 12:10:37 16° 269° (W) 12:13:19 437.425
HUMSAT D 29 May 12:09:04 12:12:58 39° 287° (WNW) 12:16:47 437.325/437.525
GONETS M04 29 May 12:10:17 12:17:00 27° 84° (E) 12:24:04
QB50P2 29 May 12:17:18 12:20:45 22° 266° (W) 12:24:07 145.880/145.840
SO-50 29 May 12:22:46 12:27:38 56° 243° (WSW) 12:32:23 436.795
50 SAT 29 May 12:28:53 12:32:31 38° 287° (WNW) 12:36:05 437.505
DUCHIFAT 1 29 May 12:29:11 12:32:11 18° 268° (W) 12:35:03 145.980
POPSAT HIP 1 29 May 12:29:30 12:32:28 17° 268° (W) 12:35:17 437.405
UKube-1 29 May 12:32:54 12:36:33 26° 291° (WNW) 12:40:06 .
ZACube-1 29 May 12:39:44 12:40:04 10° 296° (WNW) 12:40:08 437.345
BUGSAT 1 29 May 12:40:14 12:43:15 19° 268° (W) 12:46:11 437.445
SRMSAT 29 May 12:44:49 12:45:16 10° 177° (S) 12:45:46 437.500
DX 1 29 May 12:46:04 12:49:10 18° 293° (WNW) 12:52:07 434.975-435.025
Oscar 19 29 May 12:51:16 12:55:36 28° 68° (ENE) 13:00:03 437.125/150
CUBEBUG 1 29 May 13:00:03 13:04:19 46° 287° (WNW) 13:08:34 437.445
VELOX 1 29 May 13:10:18 13:13:40 21° 292° (WNW) 13:16:54 145.980
DANDE 29 May 13:11:39 13:18:53 72° 96° (E) 13:27:24 436.750
ITAMSAT 1 29 May 13:13:25 13:15:49 14° 62° (ENE) 13:18:28 435.822/435.867
ESTCUBE 1 29 May 13:23:19 13:27:01 24° 291° (WNW) 13:30:39 437.505/2401.250
CUSAT 1 29 May 13:24:51 13:32:23 77° 281° (W) 13:40:47 437.405
SPROUT 29 May 13:28:27 13:32:48 81° 284° (WNW) 13:37:07 437.525
Cosmos 2499 29 May 13:40:05 13:44:01 15° 82° (E) 13:48:20 435.465 / 435.565
TISAT 1 29 May 13:41:18 13:45:35 81° 285° (WNW) 13:49:50 437.305
Gurwin Techsat 1B 29 May 14:04:05 14:08:55 38° 70° (ENE) 14:13:50 435.225
GONETS M04 29 May 14:04:29 14:13:16 64° 281° (WNW) 14:22:03
RS-15 29 May 14:07:36 14:14:51 18° 5° (N) 14:22:22 29.354- 29.394
ITUPSAT 1 29 May 14:13:19 14:17:34 32° 96° (E) 14:21:53 437.325
BEESAT 29 May 14:19:08 14:23:34 37° 98° (E) 14:28:00 436.000
SWISSCUBE 29 May 14:27:55 14:32:34 51° 99° (E) 14:37:15 437.505
Oscar 19 29 May 14:30:08 14:34:52 34° 264° (W) 14:39:33 437.125/150
ITAMSAT 1 29 May 14:49:35 14:54:45 76° 258° (WSW) 14:59:58 435.822/435.867
DANDE 29 May 14:56:49 15:03:06 26° 297° (WNW) 15:09:45 436.750
AO-7 29 May 15:06:04 15:13:25 38° 62° (ENE) 15:20:56 29.400- 29.500
HORYU 2 29 May 15:06:53 15:10:26 24° 68° (ENE) 15:14:04 437.375
CUSAT 1 29 May 15:11:42 15:16:42 17° 302° (WNW) 15:21:25 437.405
O/OREOS (USA 219) 29 May 15:14:02 15:18:24 51° 108° (ESE) 15:22:48 437.305
KKS-1 29 May 15:16:00 15:19:42 25° 95° (E) 15:23:27 437.445
JAS-2 29 May 15:20:01 15:26:01 40° 71° (ENE) 15:31:27 435.910
Cosmos 2499 29 May 15:28:18 15:36:26 88° 277° (W) 15:43:59 435.465 / 435.565
Gurwin Techsat 1B 29 May 15:44:37 15:49:02 26° 266° (W) 15:53:21 435.225
ITUPSAT 1 29 May 15:51:23 15:55:22 26° 292° (WNW) 15:59:16 437.325
BEESAT 29 May 15:57:28 16:01:12 22° 293° (WNW) 16:04:48 436.000
SWISSCUBE 29 May 16:06:55 16:10:04 17° 295° (WNW) 16:13:04 437.505
GONETS M04 29 May 16:09:11 16:12:24 12° 305° (NW) 16:14:55
STARS 29 May 16:12:50 16:17:15 67° 101° (ESE) 16:21:37 437.465
RS-15 29 May 16:21:49 16:32:04 36° 38° (NE) 16:42:55 29.354- 29.394
HORYU 2 29 May 16:42:58 16:46:58 30° 264° (W) 16:50:54 437.375
KKS-1 29 May 16:52:27 16:56:19 28° 291° (WNW) 17:00:05 437.445
BEESAT 2 29 May 16:53:11 16:56:02 19° 112° (ESE) 16:59:02 435.950
O/OREOS (USA 219) 29 May 16:55:19 16:58:12 16° 306° (NW) 17:00:56 437.305
AO-7 29 May 16:58:07 17:06:05 49° 260° (W) 17:14:02 29.400- 29.500
MOZHAYETS 4 29 May 17:04:55 17:08:59 31° 96° (E) 17:13:06
JAS-2 29 May 17:05:26 17:11:12 30° 264° (W) 17:16:19 435.910
CUTE-I 29 May 17:24:36 17:28:23 21° 65° (ENE) 17:32:20 437.470
Cosmos 2499 29 May 17:26:06 17:30:43 16° 297° (WNW) 17:34:44 435.465 / 435.565
BEESAT 3 29 May 17:36:57 17:41:00 74° 119° (ESE) 17:45:07 437.485
Cubesat XI-IV 29 May 17:45:08 17:49:44 32° 68° (ENE) 17:54:26 437.490
YUBILEINY 29 May 17:50:45 17:58:22 34° 70° (ENE) 18:06:09 435.215
STARS 29 May 17:51:31 17:53:11 12° 296° (WNW) 17:54:37 437.465
Cosmos 2491 29 May 17:57:35 18:02:36 18° 80° (E) 18:08:10 435.465 / 435.565
BEESAT 2 29 May 18:30:02 18:33:53 38° 308° (NW) 18:37:47 435.950
RS-15 29 May 18:34:07 18:45:48 78° 242° (WSW) 18:57:54 29.354- 29.394
AIST 2 29 May 18:38:06 18:42:20 74° 120° (ESE) 18:46:38 435.215
MOZHAYETS 4 29 May 18:42:23 18:46:05 24° 291° (WNW) 18:49:41
CUBESAT XI-V 29 May 18:51:35 18:55:53 35° 96° (E) 19:00:12 437.345
PRISM 29 May 19:00:26 19:02:59 16° 92° (E) 19:05:42 437.425
CUTE-I 29 May 19:03:00 19:08:08 50° 260° (W) 19:13:19 437.470
BEESAT 3 29 May 19:17:27 19:19:31 13° 319° (NW) 19:21:28 437.485
Cubesat XI-IV 29 May 19:25:07 19:29:49 31° 264° (W) 19:34:30 437.490
STRAND 1 29 May 19:42:56 19:47:52 46° 99° (E) 19:52:49 437.568
YUBILEINY 29 May 19:47:13 19:55:32 51° 270° (W) 20:03:45 435.215
Cosmos 2491 29 May 19:49:36 19:58:25 88° 277° (W) 20:07:20 435.465 / 435.565
GOMX 1 29 May 19:56:14 20:00:51 33° 69° (ENE) 20:05:44 467.674
CINEMA 3 29 May 20:01:31 20:03:18 12° 63° (ENE) 20:05:22 145.822/145.860
CANX-2 29 May 20:03:11 20:06:23 22° 69° (ENE) 20:09:42 2200.000
CUTE 1.7 + AOD 2 29 May 20:06:19 20:09:28 21° 69° (ENE) 20:12:45 437.475
BRITE-PL 29 May 20:08:19 20:13:25 66° 75° (ENE) 20:18:57 437.365/2234.400
HO-68 29 May 20:09:17 20:15:58 45° 67° (ENE) 20:22:45 435.675
AIST 1 29 May 20:17:28 20:21:25 39° 92° (E) 20:25:27
AIST 2 29 May 20:19:06 20:21:28 14° 319° (NW) 20:23:42 435.215
SEEDS 29 May 20:23:46 20:27:17 27° 71° (ENE) 20:30:52 437.485
CUBESAT XI-V 29 May 20:29:25 20:33:09 23° 292° (WNW) 20:36:48 437.345
COMPASS 1 29 May 20:32:10 20:35:38 26° 71° (ENE) 20:39:10 437.405
CUBEBUG 2 29 May 20:33:01 20:34:41 12° 64° (ENE) 20:36:37 437.445
PRISM 29 May 20:34:45 20:38:38 38° 288° (WNW) 20:42:30 437.425
AAUSAT CUBESAT 2 29 May 20:41:35 20:45:08 29° 71° (ENE) 20:48:45 437.432
DOVE 4 29 May 20:41:53 20:46:58 60° 74° (ENE) 20:52:13 437.250
M-CUBED/EXP-1 PRIME 29 May 20:44:15 20:47:34 83° 105° (ESE) 20:50:56 437.505
AUBIESAT-1 29 May 20:49:29 20:52:48 82° 105° (ESE) 20:56:10 437.475
RS-15 29 May 20:49:32 20:56:49 17° 259° (W) 21:03:16 29.354- 29.394
DELFI C3 29 May 20:50:59 20:52:14 12° 66° (ENE) 20:53:43 145.870
Cosmos 2504 29 May 21:00:34 21:07:33 53° 77° (ENE) 21:14:37 435.465 / 435.565
UWE-3 29 May 21:11:43 21:15:23 24° 69° (ENE) 21:19:08 435.000/436.395/437.385
FUNcube-1 29 May 21:14:04 21:17:14 19° 68° (ENE) 21:20:30 145.935
STRAND 1 29 May 21:22:54 21:26:48 21° 294° (WNW) 21:30:33 437.568
HUMSAT D 29 May 21:27:01 21:28:15 11° 65° (ENE) 21:29:43 437.325/437.525
GOMX 1 29 May 21:34:22 21:38:57 30° 267° (W) 21:43:41 467.674
CINEMA 3 29 May 21:34:51 21:39:52 83° 260° (W) 21:44:57 145.822/145.860
CANX-2 29 May 21:38:23 21:42:11 30° 264° (W) 21:45:56 2200.000
CUTE 1.7 + AOD 2 29 May 21:41:26 21:45:14 31° 264° (W) 21:49:01 437.475
BRITE-PL 29 May 21:49:30 21:52:36 15° 274° (W) 21:55:30 437.365/2234.400
Cosmos 2491 29 May 21:51:02 21:56:51 18° 300° (WNW) 22:02:11 435.465 / 435.565
UKube-1 29 May 21:51:14 21:54:27 21° 68° (ENE) 21:57:47 .
ZACube-1 29 May 21:54:29 21:58:56 51° 74° (ENE) 22:03:23 437.345
AIST 1 29 May 21:56:40 21:59:20 16° 290° (WNW) 22:01:51
HO-68 29 May 21:57:24 22:03:51 34° 264° (W) 22:10:12 435.675
SEEDS 29 May 21:59:36 22:03:04 24° 266° (W) 22:06:27 437.485
Oscar 11 29 May 22:00:02 22:04:23 77° 258° (WSW) 22:08:43 145.826/435.025
DX 1 29 May 22:03:54 22:07:43 31° 70° (ENE) 22:11:37 434.975-435.025
CUBEBUG 2 29 May 22:06:03 22:10:50 76° 258° (WSW) 22:15:36 437.445
COMPASS 1 29 May 22:07:52 22:11:18 24° 266° (W) 22:14:39 437.405
ISS 29 May 22:08:42 22:11:36 32° 135° (SE) 22:14:33 145.825
AAUSAT CUBESAT 2 29 May 22:17:31 22:20:46 21° 267° (W) 22:23:57 437.432
CUBEBUG 1 29 May 22:21:41 22:23:21 12° 64° (ENE) 22:25:14 437.445
DOVE 4 29 May 22:21:52 22:25:11 16° 272° (W) 22:28:20 437.250
DELFI C3 29 May 22:22:59 22:26:56 55° 260° (W) 22:30:53 145.870
GONETS M04 29 May 22:23:21 22:25:25 11° 54° (NE) 22:28:13
CUSAT 1 29 May 22:26:28 22:29:18 13° 54° (NE) 22:32:14 437.405
VELOX 1 29 May 22:30:05 22:33:54 30° 70° (ENE) 22:37:49 145.980
ESTCUBE 1 29 May 22:45:22 22:49:02 26° 69° (ENE) 22:52:47 437.505/2401.250
UWE-3 29 May 22:47:28 22:51:45 34° 264° (W) 22:55:59 435.000/436.395/437.385
FUNcube-1 29 May 22:48:57 22:53:18 41° 263° (W) 22:57:36 145.935
Cosmos 2504 29 May 22:54:51 23:00:31 25° 275° (W) 23:05:59 435.465 / 435.565
HUMSAT D 29 May 22:59:14 23:03:31 66° 259° (W) 23:07:48 437.325/437.525
AISAT 29 May 23:02:10 23:06:35 70° 75° (ENE) 23:11:04 437.250
ANTELSAT 29 May 23:05:46 23:09:36 31° 96° (E) 23:13:25 437.575/2403.000
50 SAT 29 May 23:11:58 23:15:58 82° 260° (W) 23:19:58 437.505
QB50P1 29 May 23:22:41 23:25:53 21° 93° (E) 23:29:10 145.935-145.965
POLYITAN 1 29 May 23:26:18 23:29:42 23° 94° (E) 23:33:10 437.675
UKube-1 29 May 23:26:30 23:30:25 32° 263° (W) 23:34:19 .
ZACube-1 29 May 23:32:57 23:35:38 15° 270° (W) 23:38:05 437.345
TIGRISAT 29 May 23:36:45 23:41:05 68° 100° (E) 23:45:20 435.000
DX 1 29 May 23:40:35 23:44:02 22° 266° (W) 23:47:24 434.975-435.025
ISS 29 May 23:45:08 23:48:01 29° 332° (NNW) 23:50:55 145.825
NANOSAT C BR1 29 May 23:52:09 23:56:16 45° 99° (E) 00:00:20 145.865
CUBEBUG 1 29 May 23:54:55 23:59:14 63° 259° (W) 00:03:37 437.445
DANDE 29 May 23:56:31 00:03:56 56° 74° (ENE) 00:09:40 436.750
UNISAT 6 29 May 23:58:38 00:02:58 65° 285° (WNW) 00:07:12 437.425
QB50P2 30 May 00:02:29 00:06:44 62° 101° (E) 00:10:57 145.880/145.840
CUSAT 1 30 May 00:06:45 00:13:41 85° 79° (ENE) 00:18:52 437.405
VELOX 1 30 May 00:06:50 00:10:29 24° 266° (W) 00:14:04 145.980
DUCHIFAT 1 30 May 00:13:12 00:17:29 79° 102° (ESE) 00:21:43 145.980
POPSAT HIP 1 30 May 00:13:55 00:18:13 82° 102° (ESE) 00:22:28 437.405
GONETS M04 30 May 00:15:55 00:24:37 63° 78° (ENE) 00:33:15
SPROUT 30 May 00:21:24 00:25:41 68° 76° (ENE) 00:30:01 437.525
BUGSAT 1 30 May 00:21:52 00:26:09 67° 102° (ESE) 00:30:20 437.445
ESTCUBE 1 30 May 00:21:57 00:25:50 28° 265° (W) 00:29:41 437.505/2401.250
PCSat 30 May 00:26:31 00:31:51 66° 115° (ESE) 00:37:15 145.827
TISAT 1 30 May 00:32:14 00:36:26 66° 75° (ENE) 00:40:41 437.305
ANTELSAT 30 May 00:42:51 00:46:15 22° 292° (WNW) 00:49:30 437.575/2403.000
QB50P1 30 May 00:58:00 01:01:49 31° 289° (WNW) 01:05:33 145.935-145.965
POLYITAN 1 30 May 01:01:56 01:05:37 28° 290° (WNW) 01:09:13 437.675
VERMONT LUNAR 30 May 01:01:57 01:05:03 43° 159° (SSE) 01:08:08 437.305
BEESAT 2 30 May 01:13:36 01:15:09 12° 40° (NE) 01:16:50 435.950
TIGRISAT 30 May 01:16:05 01:17:18 11° 296° (WNW) 01:18:17 435.000
ITUPSAT 1 30 May 01:19:21 01:23:36 34° 70° (ENE) 01:27:54 437.325
Cosmos 2499 30 May 01:21:01 01:26:49 27° 70° (ENE) 01:32:52 435.465 / 435.565
ISS 30 May 01:24:16 01:25:17 11° 351° (N) 01:26:17 145.825
BEESAT 30 May 01:24:46 01:29:09 39° 71° (ENE) 01:33:35 436.000
O/OREOS (USA 219) 30 May 01:24:46 01:29:15 86° 68° (ENE) 01:33:44 437.305
NANOSAT C BR1 30 May 01:29:09 01:31:46 16° 294° (WNW) 01:34:13 145.865
SWISSCUBE 30 May 01:33:33 01:38:09 53° 73° (ENE) 01:42:48 437.505
QB50P2 30 May 01:40:30 01:42:09 12° 295° (WNW) 01:43:35 145.880/145.840
DANDE 30 May 01:40:51 01:46:26 23° 277° (W) 01:50:54 436.750
CUSAT 1 30 May 01:52:23 01:54:58 12° 282° (WNW) 01:56:59 437.405
BEESAT 3 30 May 01:56:41 02:00:23 33° 51° (NE) 02:04:04 437.485
BUGSAT 1 30 May 01:59:49 02:01:05 11° 296° (WNW) 02:02:08 437.445
PHONESAT 2.4 30 May 02:09:34 02:12:52 41° 157° (SSE) 02:16:11 2401.200-2431.200
PCSat 30 May 02:11:48 02:15:49 20° 314° (NW) 02:19:42 145.827
KKS-1 30 May 02:13:39 02:17:02 22° 68° (ENE) 02:20:33 437.445
GONETS M04 30 May 02:13:51 02:20:53 27° 276° (W) 02:27:33
Gurwin Techsat 1B 30 May 02:22:16 02:25:21 16° 90° (E) 02:28:41 435.225
SO-50 30 May 02:35:54 02:40:29 61° 118° (ESE) 02:45:17 436.795
VERMONT LUNAR 30 May 02:38:56 02:42:10 76° 353° (N) 02:45:23 437.305
Oscar 19 30 May 02:42:00 02:47:11 89° 289° (WNW) 02:52:20 437.125/150
BEESAT 2 30 May 02:49:44 02:53:52 83° 240° (WSW) 02:57:53 435.950
ITUPSAT 1 30 May 02:57:42 03:01:34 24° 266° (W) 03:05:21 437.325
AIST 2 30 May 03:00:54 03:04:50 36° 52° (NE) 03:08:42 435.215
ISS 30 May 03:01:30 03:02:50 12° 12° (NNE) 03:04:12 145.825
ITAMSAT 1 30 May 03:03:28 03:08:24 41° 98° (E) 03:13:21 435.822/435.867
BEESAT 30 May 03:03:34 03:07:10 20° 267° (W) 03:10:38 436.000
STARS 30 May 03:08:37 03:12:56 52° 73° (ENE) 03:17:18 437.465
Cosmos 2499 30 May 03:13:32 03:20:16 49° 269° (W) 03:27:07 435.465 / 435.565
SWISSCUBE 30 May 03:13:33 03:16:24 15° 270° (W) 03:19:02 437.505
BEESAT 3 30 May 03:35:04 03:38:12 21° 248° (WSW) 03:41:11 437.485
PHONESAT 2.4 30 May 03:47:24 03:50:54 80° 353° (N) 03:54:23 2401.200-2431.200
KKS-1 30 May 03:49:25 03:53:30 34° 263° (W) 03:57:35 437.445
Gurwin Techsat 1B 30 May 04:00:35 04:05:50 60° 287° (WNW) 04:11:03 435.225
MOZHAYETS 4 30 May 04:06:14 04:10:03 27° 70° (ENE) 04:13:57
JAS-2 30 May 04:14:32 04:19:09 32° 96° (E) 04:24:04 435.910
VERMONT LUNAR 30 May 04:16:13 04:19:26 89° 193° (SSW) 04:22:38 437.305
SO-50 30 May 04:18:01 04:21:30 19° 318° (NW) 04:24:58 436.795
Oscar 19 30 May 04:24:16 04:25:52 11° 299° (WNW) 04:27:09 437.125/150
HORYU 2 30 May 04:34:31 04:38:50 52° 100° (E) 04:43:09 437.375
ISS 30 May 04:36:57 04:40:00 36° 31° (NNE) 04:43:04 145.825
AIST 2 30 May 04:40:01 04:43:11 20° 248° (WSW) 04:46:12 435.215
ITAMSAT 1 30 May 04:43:31 04:47:41 24° 294° (WNW) 04:51:45 435.822/435.867
STARS 30 May 04:47:25 04:49:46 14° 270° (W) 04:51:53 437.465
AO-7 30 May 05:00:06 05:08:24 63° 103° (ESE) 05:16:41 29.400- 29.500
PHONESAT 2.4 30 May 05:25:37 05:29:06 87° 7° (N) 05:32:35 2401.200-2431.200
MOZHAYETS 4 30 May 05:43:19 05:47:14 27° 265° (W) 05:51:06
PRISM 30 May 05:51:26 05:52:35 11° 65° (ENE) 05:53:57 437.425
VERMONT LUNAR 30 May 05:53:38 05:56:24 26° 207° (SSW) 05:59:08 437.305
CUBESAT XI-V 30 May 05:54:18 05:58:18 30° 70° (ENE) 06:02:22 437.345
JAS-2 30 May 05:59:53 06:04:17 28° 292° (WNW) 06:08:44 435.910
Cosmos 2491 30 May 06:01:27 06:09:47 45° 74° (ENE) 06:18:08 435.465 / 435.565
Cubesat XI-IV 30 May 06:04:46 06:07:03 13° 88° (E) 06:09:39 437.490
HORYU 2 30 May 06:12:35 06:15:06 15° 295° (WNW) 06:17:25 437.375
ISS 30 May 06:13:36 06:16:18 23° 227° (SW) 06:18:58 145.825
YUBILEINY 30 May 06:50:33 06:58:24 40° 88° (E) 07:06:23 435.215
RS-15 30 May 06:50:35 06:55:55 16° 100° (E) 07:02:11 29.354- 29.394
AO-7 30 May 06:53:41 07:00:45 31° 301° (WNW) 07:07:35 29.400- 29.500
STRAND 1 30 May 06:57:52 07:02:51 60° 74° (ENE) 07:07:55 437.568
PHONESAT 2.4 30 May 07:03:55 07:07:03 31° 206° (SSW) 07:10:09 2401.200-2431.200
CUTE-I 30 May 07:20:43 07:26:06 71° 102° (ESE) 07:31:27 437.470
PRISM 30 May 07:23:34 07:27:35 60° 259° (W) 07:31:39 437.425
M-CUBED/EXP-1 PRIME 30 May 07:31:19 07:35:29 83° 251° (WSW) 07:39:19 437.505
CUBESAT XI-V 30 May 07:31:57 07:35:46 25° 266° (W) 07:39:32 437.345
AUBIESAT-1 30 May 07:36:06 07:40:13 85° 251° (WSW) 07:44:02 437.475
Cubesat XI-IV 30 May 07:42:26 07:47:49 74° 286° (WNW) 07:53:10 437.490
Cosmos 2491 30 May 07:58:34 08:06:33 39° 273° (W) 08:14:19 435.465 / 435.565
GOMX 1 30 May 08:02:32 08:03:09 10° 84° (E) 08:04:10 467.674
AIST 1 30 May 08:02:32 08:06:55 70° 264° (W) 08:11:17
BRITE-PL 30 May 08:15:03 08:19:34 26° 91° (E) 08:24:00 437.365/2234.400
STRAND 1 30 May 08:39:34 08:42:34 15° 270° (W) 08:45:18 437.568
DOVE 4 30 May 08:43:42 08:46:57 18° 89° (E) 08:50:15 437.250
YUBILEINY 30 May 08:46:58 08:55:13 43° 287° (WNW) 09:03:22 435.215
RS-15 30 May 08:55:50 09:06:40 79° 119° (ESE) 09:17:50 29.354- 29.394
CUTE-I 30 May 09:02:28 09:05:39 16° 297° (WNW) 09:08:35 437.470
PCSat 30 May 09:15:24 09:20:33 43° 55° (NE) 09:25:42 145.827
UNISAT 6 30 May 09:23:58 09:24:32 10° 63° (ENE) 09:25:23 437.425
CANX-2 30 May 09:24:04 09:28:07 46° 98° (E) 09:32:11 2200.000
HO-68 30 May 09:25:03 09:31:58 50° 100° (E) 09:38:52 435.675
CUTE 1.7 + AOD 2 30 May 09:27:03 09:31:05 45° 98° (E) 09:35:09 437.475
CINEMA 3 30 May 09:31:54 09:35:42 25° 93° (E) 09:39:24 145.822/145.860
GOMX 1 30 May 09:36:50 09:42:11 85° 284° (WNW) 09:47:10 467.674
